This is the latest recevied weather packets stored in our database for station/object dl1wer-13. If no packets are shown the sender has not sent any weather packets the latest 10 day(s).
| Time | Temp. | Humidity | Pressure | Rain* | Wind** | Luminosity | Snow |
|---|---|---|---|---|---|---|---|
| 1778046022 | 10.56° C | 84% | 1033.2 hPa | 0 mm | - | - | - |
| 1778045423 | 11.11° C | 85% | 1033.4 hPa | 0 mm | - | - | - |
| 1778044822 | 11.11° C | 89% | 1033.3 hPa | 0 mm | - | - | - |
| 1778044222 | 11.11° C | 94% | 1033.4 hPa | 0 mm | - | - | - |
| 1778043623 | 10.56° C | 95% | 1033.6 hPa | 0 mm | - | - | - |
| 1778043023 | 9.44° C | 94% | 1033.7 hPa | 0 mm | - | - | - |
| 1778042422 | 8.89° C | 93% | 1033.9 hPa | 0 mm | - | - | - |
| 1778041823 | 8.33° C | 92% | 1033.7 hPa | 0 mm | - | - | - |
| 1778041222 | 8.33° C | 92% | 1033.8 hPa | 0 mm | - | - | - |
| 1778040623 | 8.33° C | 92% | 1033.8 hPa | 0 mm | - | - | - |
| 1778040023 | 8.89° C | 92% | 1033.8 hPa | 0 mm | - | - | - |
| 1778039422 | 8.89° C | 91% | 1034.1 hPa | 0 mm | - | - | - |
| 1778038822 | 8.89° C | 91% | 1034.1 hPa | 0 mm | - | - | - |
| 1778038223 | 8.89° C | 91% | 1034.1 hPa | 0 mm | - | - | - |
| 1778037622 | 9.44° C | 90% | 1034.5 hPa | 0 mm | - | - | - |
| 1778037023 | 9.44° C | 90% | 1034.3 hPa | 0 mm | - | - | - |
| 1778036423 | 9.44° C | 89% | 1034.1 hPa | 0 mm | - | - | - |
| 1778035823 | 10° C | 90% | 1034.2 hPa | 0 mm | - | - | - |
| 1778035223 | 10.56° C | 90% | 1034.5 hPa | 0 mm | - | - | - |
| 1778034623 | 10.56° C | 91% | 1034.2 hPa | 0 mm | - | - | - |
| 1778034022 | 10.56° C | 92% | 1034.3 hPa | 0 mm | - | - | - |
| 1778033423 | 10.56° C | 94% | 1034.5 hPa | 0 mm | - | - | - |
| 1778032823 | 10° C | 95% | 1034.9 hPa | 0 mm | - | - | - |
| 1778032223 | 10° C | 96% | 1034.6 hPa | 0 mm | - | - | - |
| 1778031622 | 9.44° C | 96% | 1034.7 hPa | 0 mm | - | - | - |
* Rain latest hour (hover to see other rain measurements)
** Current wind speed in m/s (hover to see current wind gust speed)